Regional Weather Roundup
Issued by NWS Upton, NY

Current Version | Previous Version | Graphics & Text | Print | Product List | Glossary Off
Versions: 1 2 3 4 5 6 7 8 9 10 11 12 13 14 15 16 17 18 19 20 21 22 23 24 25 26 27

000
ASUS41 KOKX 220409
RWROKX

REGIONAL WEATHER ROUNDUP
NATIONAL WEATHER SERVICE NEW YORK NY
1200 AM EDT MON MAY 22 2017

NOTE: "FAIR" INDICATES FEW OR NO CLOUDS BELOW 12,000 FEET WITH NO
SIGNIFICANT WEATHER AND/OR OBSTRUCTIONS TO VISIBILITY.

NYZ071-072-176-178-NJZ106-104-220500-
NEW YORK CITY METRO AREA

CITY           SKY/WX    TMP DP  RH WIND       PRES   REMARKS
Central Park   CLOUDY    57  43  59 CALM      30.28F
Wall St Helipt CLOUDY    57  45  62 SE8       30.27F
Bronx Bot Gard   N/A     55  39  54 S3        30.26S
LaGuardia APRT CLOUDY    60  43  53 S12       30.25F
Kennedy INTL   CLOUDY    57  47  69 S7        30.27F
Breezy Point     N/A     55 N/A N/A S8          N/A
Newark/Liberty CLOUDY    57  46  66 S7        30.25F
Teterboro      CLOUDY    57  42  57 S8        30.24F
$$

NYZ177-179-078>081-220500-
LONG ISLAND NEW YORK

CITY           SKY/WX    TMP DP  RH WIND       PRES   REMARKS
Jones Beach      N/A     55 N/A N/A S7          N/A
Matinecock PT    N/A     55 N/A N/A S1          N/A
Farmingdale    CLOUDY    56  42  59 S7        30.27F
MacArthur/ISP  CLOUDY    56  40  55 S7        30.26F
Shirley        CLOUDY    55  43  63 S6        30.27F
Mt Sinai Harb    N/A     55 N/A N/A S7          N/A
Westhampton    CLOUDY    52  42  69 CALM      30.29F
East Hampton     N/A     49  43  78 CALM      30.27F
Montauk          N/A     55  48  77 S5        30.29S
$$

NYZ052-065-067-220500-
HUDSON VALLEY

CITY           SKY/WX    TMP DP  RH WIND       PRES   REMARKS
White Plains   CLOUDY    56  37  49 SE6       30.24F
Larchmont Harb   N/A     55 N/A N/A SE8         N/A
Croton O-T Hud   N/A     57 N/A N/A SE5         N/A
Newburgh       CLOUDY    57  37  47 S8        30.24F
Montgomery     CLOUDY    58  34  40 S6        30.22F
Poughkeepsie   CLOUDY    58  33  39 S6        30.22F
Albany         LGT RAIN  60  35  39 S15G23    30.16F
$$

NJZ001-105-106-008-010-013-015-019>022-104-220500-
NEW JERSEY

CITY           SKY/WX    TMP DP  RH WIND       PRES   REMARKS
Newark/Liberty CLOUDY    57  46  66 S7        30.25F
Teterboro      CLOUDY    57  42  57 S8        30.24F
Caldwell       CLOUDY    59  43  55 S7        30.25F
Somerville     CLOUDY    57  45  64 VRB3      30.22F
Linden         CLOUDY    57  44  61 S5        30.25F
Perth Amboy      N/A     55 N/A N/A S7          N/A
Sussex         CLOUDY    58  38  47 SW7       30.23F
Andover          N/A     57  36  45 CALM      30.22F
Trenton        CLOUDY    57  47  69 SE10      30.23F
Millville      CLOUDY    57  53  86 SE7       30.22F
Atlantic City  NOT AVBL
Wrightstown    CLOUDY    56  48  75 E5        30.22F
Toms River     CLOUDY    57  48  72 SE5       30.25F
Belmar         CLOUDY    56  47  71 SE5       30.26F
$$

PAZ047>061-062-071-220500-
EASTERN PENNSYLVANIA

CITY           SKY/WX    TMP DP  RH WIND       PRES   REMARKS
Philadelphia   CLOUDY    58  48  69 SE8       30.24F
Allentown      CLOUDY    60  41  49 SE9       30.21F
Scranton       CLOUDY    60  38  43 S5        30.17S
$$

CTZ002-004>006-009-010-012-RIZ004-006-007-MAZ004-011-015-220500-
SOUTHERN NEW ENGLAND
 IN CT

CITY           SKY/WX    TMP DP  RH WIND       PRES   REMARKS
Bradley INTL   CLOUDY    57  36  45 S8        30.25F
Hartford       CLOUDY    56  39  53 S7        30.25F
Danbury        CLOUDY    55  36  48 S6        30.26F
Wtrbury/Oxford   N/A     54  32  43 S6        30.27S
Bridgeport     CLOUDY    58  41  53 S6        30.26F
Meriden        MOCLDY    55  38  52 S7        30.26F
New Haven      CLOUDY    56  41  57 S5        30.27F
Chester          N/A     54  39  58 S6        30.26F
Groton         CLOUDY    54  44  69 S5        30.27F
Wilimantic     CLOUDY    57  38  48 S3        30.27F

 IN RI

CITY           SKY/WX    TMP DP  RH WIND       PRES   REMARKS
Providence     MOCLDY    53  41  63 SW7       30.28F
Block Island   PTCLDY    52  48  86 S5        30.28F
Westerly       PTCLDY    53  46  77 CALM      30.29S
 IN MA

CITY           SKY/WX    TMP DP  RH WIND       PRES   REMARKS
Boston         CLOUDY    57  39  51 SW8       30.26F
Worcester      NOT AVBL
Westfield      CLOUDY    57  38  48 S6        30.24S
Provincetown   CLOUDY    53  42  66 SW9       30.27F
Nantucket      PTCLDY    47  35  63 S7        30.28F
$$

ANZ330-335-338-340-345-350-353-355-220500-
COASTAL MARINE OBSERVATIONS


STATION/POSITION TIME  SKY/WX   TEMP    WIND        PRES    VSBY  WAVE
                                AIR SEA DIR/SP/G                  HT/PER
                 (UTC)          (F)     (DEG/KT/KT) (MB)    (MI)  (FT/S)
NY HARB ENTRANCE 0250            56 56  150/ 10/ 12 1025.1          2/ 6
20 S FIRE ISLAND 0350            54 54  140/  8/ 10 1024.5          2/ 6
GREAT SOUTH BAY  NOT AVBL
23 SSW MONTAUK P 0250            54 55              1025.9          2/ 7
15 E BARNEGAT LI 0330               56                N/A           3/ 6
HUDSON CANYON    0250            54 53  110/  8/ 10 1025.0          3/ 6
KINGS POINT      0342            57 58  200/  7/  9 1024.5
EXECUTION ROCKS  0345            58                   N/A
CENTRAL LI SOUND 0330            56     180/  8/ 10   N/A           1
EASTERN LI SOUND NOT AVBL
ROBBINS REEF     0342            56     160/ 11/ 12 1025.2
$$


>>>>>>>>>>>>>>>>>>>>>>>>>>>> KEY <<<<<<<<<<<<<<<<<<<<<<<<<<<
>                                                          <
>     SKY/WX - Sky Condition/Present Weather               <
>     TMP    - Temperature in Fahrenheit                   <
>     DP     - Dew Point in Fahrenheit                     <
>     RH     - Relative Humidity in Percent                <
>     WIND   - Direction (from) and Speed in MPH           <
>     PRES   - Mean Sea Level Pressure (inches of Hg)      <
>     WCI    - Wind Chill Index                            <
>     VSB    - VISIBILITY IN MILES                         <
>     HX     - HEAT INDEX                                  <
>     TC     - TEMPERATURE IN CELSIUS                      <
>     VRB    - VARIABLE WIND DIRECTION                     <
>                                                          <
>>>>>>>>>>>>>>>>>>>>>>>>>>>> KEY <<<<<<<<<<<<<<<<<<<<<<<<<<<




USA.gov is the U.S. government's official web portal to all federal, state and local government web resources and services.